Weather History for Chickasha, OK

Change the Weather History Date:

Sunday, May 12, 2013

  Actual Average Record
Temperature  
Mean Temperature 60 °F -  
Max Temperature 77 °F 82 °F 93 °F (1956)
Min Temperature 42 °F 57 °F 38 °F (1960)
Degree Days  
Heating Degree Days 6    
Growing Degree Days 10 (Base 50)    
Moisture  
Dew Point 45 °F    
Average Humidity 62    
Maximum Humidity 100    
Minimum Humidity 32    
Precipitation  
Precipitation 0.00 in - - ()
Sea Level Pressure  
Sea Level Pressure 30.21 in    
Wind  
Wind Speed 3 mph (South)    
Max Wind Speed 13 mph    
Max Gust Speed 17 mph    
Visibility 10 miles    
Events      
Averages and records for this station are not official NWS values.
T = Trace of Precipitation, MM = Missing Value Source: NWS Daily Summary

Daily Weather History Graph

Daily Weather History Graph

Search for Another Location

Airport:

Trip Planner

Search our weather history database for the weather conditions in past years. The results will help you decide how hot, cold, wet, or windy it might be!

Date:

Astronomy

May. 12, 2013 Rise Set
Actual Time 6:30 AM CDT 8:26 PM CDT
Civil Twilight 6:02 AM CDT 8:54 PM CDT
Nautical Twilight 5:28 AM CDT 9:28 PM CDT
Astronomical Twilight 4:52 AM CDT 10:04 PM CDT
Moon 8:27 AM CDT (5/12) 10:53 PM CDT (5/12)
Length of Visible Light 14h 52m
Length of Day
13h 56m
Waxing Crescent, 7% of the Moon is Illuminated
May 12
Waxing Crescent
May 17
First Quarter
May 24
Full
May 31
Last Quarter
Jun 8
New

Hourly Weather History & Observations

Time (CDT) Temp. Windchill Dew Point Humidity Pressure Visibility Wind Dir Wind Speed Gust Speed Precip Events Conditions
12:15 AM 51.8 °F - 46.4 °F 82% 30.26 in 10.0 mi Calm Calm - N/A   Clear
12:35 AM 51.8 °F - 46.4 °F 82% 30.26 in 10.0 mi Calm Calm - N/A   Clear
12:55 AM 48.2 °F - 44.6 °F 87% 30.27 in 10.0 mi SW 3.5 mph - N/A   Clear
1:15 AM 48.2 °F - 44.6 °F 87% 30.27 in 10.0 mi Calm Calm - N/A   Clear
1:35 AM 48.2 °F - 44.6 °F 87% 30.28 in 10.0 mi WNW 3.5 mph - N/A   Clear
1:55 AM 48.2 °F - 46.4 °F 93% 30.28 in 10.0 mi WNW 3.5 mph - N/A   Clear
2:15 AM 48.2 °F - 46.4 °F 93% 30.28 in 10.0 mi NNW 3.5 mph - N/A   Clear
2:35 AM 48.2 °F - 44.6 °F 87% 30.27 in 10.0 mi North 4.6 mph - N/A   Clear
2:55 AM 48.2 °F - 44.6 °F 87% 30.27 in 10.0 mi Calm Calm - N/A   Clear
3:15 AM 46.4 °F - 44.6 °F 93% 30.27 in 10.0 mi Calm Calm - N/A   Clear
3:35 AM 46.4 °F 45.2 °F 44.6 °F 93% 30.27 in 10.0 mi WSW 3.5 mph - N/A   Clear
3:55 AM 46.4 °F - 46.4 °F 100% 30.26 in 10.0 mi Calm Calm - N/A   Scattered Clouds
4:15 AM 44.6 °F 43.1 °F 42.8 °F 93% 30.26 in 10.0 mi West 3.5 mph - N/A   Scattered Clouds
4:35 AM 44.6 °F - 44.6 °F 100% 30.26 in 10.0 mi Calm Calm - N/A   Clear
4:55 AM 44.6 °F - 42.8 °F 93% 30.26 in 10.0 mi Calm Calm - N/A   Scattered Clouds
5:15 AM 42.8 °F - 42.8 °F 100% 30.26 in 10.0 mi Calm Calm - N/A   Clear
5:35 AM 42.8 °F - 42.8 °F 100% 30.25 in 10.0 mi Calm Calm - N/A   Clear
5:55 AM 42.8 °F - 42.8 °F 100% 30.25 in 10.0 mi Calm Calm - N/A   Clear
6:15 AM 42.8 °F - 42.8 °F 100% 30.26 in 10.0 mi Calm Calm - N/A   Scattered Clouds
6:35 AM 42.8 °F - 42.8 °F 100% 30.26 in 10.0 mi Calm Calm - N/A   Mostly Cloudy
6:55 AM 44.6 °F - 44.6 °F 100% 30.25 in 10.0 mi Calm Calm - N/A   Scattered Clouds
7:15 AM 46.4 °F - 44.6 °F 93% 30.25 in 10.0 mi Calm Calm - N/A   Clear
7:35 AM 48.2 °F - 46.4 °F 93% 30.26 in 10.0 mi Calm Calm - N/A   Scattered Clouds
7:55 AM 51.8 °F - 44.6 °F 76% 30.26 in 10.0 mi Calm Calm - N/A   Mostly Cloudy
8:15 AM 53.6 °F - 48.2 °F 82% 30.26 in 10.0 mi Calm Calm - N/A   Mostly Cloudy
8:35 AM 53.6 °F - 50.0 °F 88% 30.27 in 10.0 mi West 4.6 mph - N/A   Mostly Cloudy
8:55 AM 53.6 °F - 50.0 °F 88% 30.28 in 10.0 mi West 5.8 mph - N/A   Scattered Clouds
9:15 AM 55.4 °F - 50.0 °F 82% 30.28 in 10.0 mi Calm Calm - N/A   Scattered Clouds
9:35 AM 59.0 °F - 48.2 °F 67% 30.27 in 10.0 mi Calm Calm - N/A   Clear
9:55 AM 60.8 °F - 46.4 °F 59% 30.28 in 10.0 mi South 3.5 mph - N/A   Scattered Clouds
10:15 AM 60.8 °F - 46.4 °F 59% 30.28 in 10.0 mi Calm Calm - N/A   Mostly Cloudy
10:35 AM 62.6 °F - 42.8 °F 48% 30.27 in 10.0 mi SSE 4.6 mph - N/A   Scattered Clouds
10:55 AM 66.2 °F - 42.8 °F 43% 30.27 in 10.0 mi SSE 4.6 mph - N/A   Clear
11:15 AM 68.0 °F - 44.6 °F 43% 30.26 in 10.0 mi SE 5.8 mph - N/A   Clear
11:35 AM 68.0 °F - 42.8 °F 40% 30.26 in 10.0 mi ESE 9.2 mph - N/A   Clear
11:55 AM 68.0 °F - 44.6 °F 43% 30.26 in 10.0 mi South 8.1 mph - N/A   Clear
12:15 PM 68.0 °F - 44.6 °F 43% 30.26 in 10.0 mi SSE 5.8 mph - N/A   Clear
12:35 PM 69.8 °F - 44.6 °F 40% 30.25 in 10.0 mi SSE 10.4 mph - N/A   Clear
12:55 PM 71.6 °F - 44.6 °F 38% 30.25 in 10.0 mi SE 8.1 mph - N/A   Clear
1:15 PM 73.4 °F - 46.4 °F 38% 30.24 in 10.0 mi South 9.2 mph - N/A   Clear
1:35 PM 73.4 °F - 44.6 °F 36% 30.23 in 10.0 mi SSE 4.6 mph - N/A   Clear
1:55 PM 69.8 °F - 46.4 °F 43% 30.22 in 10.0 mi South 6.9 mph - N/A   Mostly Cloudy
2:15 PM 69.8 °F - 46.4 °F 43% 30.22 in 10.0 mi South 6.9 mph 10.4 mph N/A   Mostly Cloudy
3:35 PM 77.0 °F - 46.4 °F 34% 30.19 in 10.0 mi South 8.1 mph - N/A   Unknown
3:55 PM 77.0 °F - 44.6 °F 32% 30.18 in 10.0 mi South 10.4 mph 16.1 mph N/A   Clear
4:15 PM 77.0 °F - 44.6 °F 32% 30.16 in 10.0 mi SSW 12.7 mph 17.3 mph N/A   Clear
4:35 PM 77.0 °F - 44.6 °F 32% 30.16 in 10.0 mi SSW 11.5 mph - N/A   Clear
4:55 PM 77.0 °F - 44.6 °F 32% 30.15 in 10.0 mi SSW 9.2 mph - N/A   Clear
5:15 PM 75.2 °F - 44.6 °F 34% 30.15 in 10.0 mi SSW 11.5 mph - N/A   Clear
5:35 PM 75.2 °F - 44.6 °F 34% 30.14 in 10.0 mi South 10.4 mph - N/A   Clear
5:55 PM 77.0 °F - 44.6 °F 32% 30.13 in 10.0 mi South 8.1 mph - N/A   Clear
6:15 PM 77.0 °F - 46.4 °F 34% 30.12 in 10.0 mi South 4.6 mph - N/A   Clear
6:35 PM 73.4 °F - 44.6 °F 36% 30.12 in 10.0 mi South 5.8 mph - N/A   Clear
6:55 PM 73.4 °F - 46.4 °F 38% 30.11 in 10.0 mi South 5.8 mph - N/A   Clear
7:15 PM 73.4 °F - 46.4 °F 38% 30.10 in 10.0 mi South 6.9 mph - N/A   Clear
7:35 PM 73.4 °F - 48.2 °F 41% 30.10 in 10.0 mi South 4.6 mph - N/A   Clear
7:55 PM 69.8 °F - 46.4 °F 43% 30.10 in 10.0 mi South 4.6 mph - N/A   Clear
8:15 PM 68.0 °F - 46.4 °F 46% 30.10 in 10.0 mi SSE 6.9 mph - N/A   Clear
8:35 PM 68.0 °F - 44.6 °F 43% 30.10 in 10.0 mi SE 5.8 mph - N/A   Clear
8:55 PM 68.0 °F - 48.2 °F 49% 30.10 in 10.0 mi SE 5.8 mph - N/A   Clear
9:15 PM 68.0 °F - 46.4 °F 46% 30.09 in 10.0 mi SE 8.1 mph - N/A   Clear
9:35 PM 66.2 °F - 46.4 °F 49% 30.10 in 10.0 mi SSE 6.9 mph - N/A   Clear
9:55 PM 66.2 °F - 44.6 °F 46% 30.11 in 10.0 mi SE 8.1 mph - N/A   Clear
10:15 PM 66.2 °F - 44.6 °F 46% 30.11 in 10.0 mi SSE 8.1 mph - N/A   Clear
10:35 PM 66.2 °F - 42.8 °F 43% 30.12 in 10.0 mi SSE 11.5 mph - N/A   Clear
10:55 PM 64.4 °F - 42.8 °F 45% 30.12 in 10.0 mi SSE 10.4 mph - N/A   Clear
11:15 PM 62.6 °F - 42.8 °F 48% 30.12 in 10.0 mi SSE 9.2 mph - N/A   Clear
11:35 PM 60.8 °F - 42.8 °F 52% 30.12 in 10.0 mi SSE 8.1 mph - N/A   Clear
11:55 PM 60.8 °F - 42.8 °F 52% 30.12 in 10.0 mi SSE 8.1 mph - N/A   Clear